| time (UTC) | temp F | wind direction | speed MPH | gust MPH | rain 1hr in | rain 24hr in | rain mn in | humidity % | barometer mb |
| 20260510053015 | 88 | 285 | 0.0 | 0.0 | 0.00 | 0.00 | 0.00 | 12 | 1003.9 |
| 20260510051527 | 89 | 284 | 2.0 | 0.0 | 0.00 | 0.00 | 0.00 | 12 | 1003.8 |
| 20260510050015 | 88 | 284 | 0.0 | 0.0 | 0.00 | 0.00 | 0.00 | 13 | 1003.9 |
| 20260510044514 | 89 | 284 | 0.0 | 0.0 | 0.00 | 0.00 | 0.00 | 13 | 1003.8 |
| 20260510043020 | 90 | 284 | 0.0 | 0.0 | 0.00 | 0.00 | 0.00 | 12 | 1003.6 |
| 20260510041513 | 91 | 284 | 0.0 | 0.0 | 0.00 | 0.00 | 0.00 | 12 | 1003.4 |
| 20260510040013 | 91 | 284 | 0.0 | 0.0 | 0.00 | 0.00 | 0.00 | 11 | 1003.4 |
| 20260510034512 | 92 | 284 | 0.0 | 0.0 | 0.00 | 0.00 | 0.00 | 10 | 1003.2 |
| 20260510033012 | 93 | 285 | 0.0 | 0.0 | 0.00 | 0.00 | 0.00 | 10 | 1002.8 |
| 20260510031512 | 93 | 284 | 0.0 | 0.0 | 0.00 | 0.00 | 0.00 | 10 | 1002.7 |
| 20260510030014 | 94 | 284 | 0.0 | 0.0 | 0.00 | 0.00 | 0.00 | 10 | 1002.6 |
| 20260510024510 | 94 | 284 | 0.0 | 0.0 | 0.00 | 0.00 | 0.00 | 9 | 1002.3 |
| 20260510023010 | 95 | 285 | 3.0 | 0.0 | 0.00 | 0.00 | 0.00 | 9 | 1002.2 |
| 20260510021514 | 96 | 296 | 5.0 | 0.0 | 0.00 | 0.00 | 0.00 | 9 | 1002.2 |
| 20260510020010 | 97 | 288 | 6.0 | 0.0 | 0.00 | 0.00 | 0.00 | 9 | 1002.3 |
| 20260510014510 | 97 | 267 | 5.0 | 0.0 | 0.00 | 0.00 | 0.00 | 9 | 1002.2 |
| 20260510013007 | 98 | 292 | 4.0 | 0.0 | 0.00 | 0.00 | 0.00 | 9 | 1002.3 |
| 20260510011508 | 98 | 281 | 7.0 | 0.0 | 0.00 | 0.00 | 0.00 | 9 | 1002.3 |
| 20260510010007 | 99 | 283 | 3.0 | 0.0 | 0.00 | 0.00 | 0.00 | 9 | 1002.4 |
| 20260510004508 | 99 | 284 | 7.0 | 0.0 | 0.00 | 0.00 | 0.00 | 10 | 1002.4 |
| 20260510003006 | 99 | 304 | 5.0 | 0.0 | 0.00 | 0.00 | 0.00 | 9 | 1002.3 |
| 20260510001507 | 99 | 300 | 7.0 | 0.0 | 0.00 | 0.00 | 0.00 | 9 | 1002.4 |
| 20260510000011 | 99 | 307 | 8.0 | 0.0 | 0.00 | 0.00 | 0.00 | 9 | 1002.4 |
| 20260509234507 | 100 | 219 | 6.0 | 0.0 | 0.00 | 0.00 | 0.00 | 9 | 1002.6 |
| 20260509233003 | 100 | 272 | 3.0 | 0.0 | 0.00 | 0.00 | 0.00 | 9 | 1002.7 |
| 20260509231502 | 100 | 323 | 8.0 | 0.0 | 0.00 | 0.00 | 0.00 | 9 | 1002.8 |
| 20260509230002 | 99 | 194 | 7.0 | 0.0 | 0.00 | 0.00 | 0.00 | 8 | 1003.0 |
| 20260509224501 | 99 | 302 | 5.0 | 0.0 | 0.00 | 0.00 | 0.00 | 8 | 1003.3 |
| 20260509223104 | 99 | 276 | 7.0 | 0.0 | 0.00 | 0.00 | 0.00 | 9 | 1003.5 |
| 20260509221559 | 99 | 319 | 7.0 | 0.0 | 0.00 | 0.00 | 0.00 | 9 | 1003.9 |
| 20260509220059 | 99 | 263 | 7.0 | 0.0 | 0.00 | 0.00 | 0.00 | 9 | 1004.0 |
| 20260509214554 | 98 | 302 | 6.0 | 0.0 | 0.00 | 0.00 | 0.00 | 9 | 1004.3 |
| 20260509213054 | 98 | 258 | 7.0 | 0.0 | 0.00 | 0.00 | 0.00 | 10 | 1004.5 |
| 20260509211558 | 98 | 260 | 6.0 | 0.0 | 0.00 | 0.00 | 0.00 | 10 | 1004.9 |
| 20260509210058 | 97 | 265 | 5.0 | 0.0 | 0.00 | 0.00 | 0.00 | 11 | 1005.0 |
| 20260509204548 | 97 | 230 | 7.0 | 0.0 | 0.00 | 0.00 | 0.00 | 11 | 1005.2 |
| 20260509203051 | 96 | 306 | 5.0 | 0.0 | 0.00 | 0.00 | 0.00 | 12 | 1005.6 |
| 20260509201546 | 96 | 289 | 3.0 | 0.0 | 0.00 | 0.00 | 0.00 | 13 | 1005.8 |
| 20260509200049 | 95 | 282 | 2.0 | 0.0 | 0.00 | 0.00 | 0.00 | 12 | 1006.0 |
| 20260509194542 | 95 | 283 | 1.0 | 0.0 | 0.00 | 0.00 | 0.00 | 13 | 1006.2 |
| 20260509193041 | 95 | 271 | 2.0 | 0.0 | 0.00 | 0.00 | 0.00 | 13 | 1006.4 |
| 20260509191539 | 93 | 276 | 0.0 | 0.0 | 0.00 | 0.00 | 0.00 | 13 | 1006.6 |
| 20260509190042 | 93 | 194 | 1.0 | 0.0 | 0.00 | 0.00 | 0.00 | 13 | 1006.6 |
| 20260509184537 | 92 | 193 | 3.0 | 0.0 | 0.00 | 0.00 | 0.00 | 14 | 1006.8 |
| 20260509183034 | 91 | 190 | 4.0 | 0.0 | 0.00 | 0.00 | 0.00 | 14 | 1007.1 |
| 20260509181530 | 91 | 167 | 0.0 | 0.0 | 0.00 | 0.00 | 0.00 | 15 | 1007.3 |
| 20260509180027 | 90 | 166 | 3.0 | 0.0 | 0.00 | 0.00 | 0.00 | 15 | 1007.6 |
| 20260509174523 | 90 | 166 | 3.0 | 0.0 | 0.00 | 0.00 | 0.00 | 15 | 1007.7 |
| 20260509173050 | 89 | 169 | 2.0 | 0.0 | 0.00 | 0.00 | 0.00 | 16 | 1007.8 |
| 20260509171524 | 88 | 180 | 2.0 | 0.0 | 0.00 | 0.00 | 0.00 | 16 | 1007.9 |
| 20260509170015 | 88 | 180 | 1.0 | 0.0 | 0.00 | 0.00 | 0.00 | 17 | 1007.7 |
| 20260509164507 | 86 | 124 | 0.0 | 0.0 | 0.00 | 0.00 | 0.00 | 17 | 1007.7 |
| 20260509163003 | 86 | 123 | 2.0 | 0.0 | 0.00 | 0.00 | 0.00 | 18 | 1007.7 |
| 20260509161601 | 85 | 122 | 3.0 | 0.0 | 0.00 | 0.00 | 0.00 | 19 | 1007.8 |
| 20260509160059 | 83 | 122 | 3.0 | 0.0 | 0.00 | 0.00 | 0.00 | 20 | 1007.7 |
| 20260509154555 | 83 | 114 | 2.0 | 0.0 | 0.00 | 0.00 | 0.00 | 20 | 1007.8 |
| 20260509153052 | 82 | 111 | 4.0 | 0.0 | 0.00 | 0.00 | 0.00 | 21 | 1007.7 |
| 20260509151604 | 81 | 103 | 4.0 | 0.0 | 0.00 | 0.00 | 0.00 | 22 | 1007.7 |
| 20260509150048 | 80 | 90 | 3.0 | 0.0 | 0.00 | 0.00 | 0.00 | 22 | 1007.6 |
| 20260509144540 | 79 | 159 | 1.0 | 0.0 | 0.00 | 0.00 | 0.00 | 23 | 1007.5 |
| 20260509143039 | 78 | 159 | 2.0 | 0.0 | 0.00 | 0.00 | 0.00 | 23 | 1007.5 |
| 20260509141534 | 77 | 164 | 1.0 | 0.0 | 0.00 | 0.00 | 0.00 | 24 | 1007.4 |
| 20260509140032 | 76 | 168 | 2.0 | 0.0 | 0.00 | 0.00 | 0.00 | 25 | 1007.3 |
| 20260509134531 | 75 | 169 | 0.0 | 0.0 | 0.00 | 0.00 | 0.00 | 25 | 1007.2 |
| 20260509133030 | 74 | 169 | 0.0 | 0.0 | 0.00 | 0.00 | 0.00 | 26 | 1007.0 |
| 20260509131534 | 73 | 254 | 1.0 | 0.0 | 0.00 | 0.00 | 0.00 | 26 | 1006.9 |
| 20260509130051 | 72 | 253 | 1.0 | 0.0 | 0.00 | 0.00 | 0.00 | 25 | 1006.7 |
| 20260509124531 | 72 | 253 | 1.0 | 0.0 | 0.00 | 0.00 | 0.00 | 26 | 1006.5 |
| 20260509123024 | 72 | 253 | 0.0 | 0.0 | 0.00 | 0.00 | 0.00 | 27 | 1006.3 |
| 20260509121517 | 72 | 253 | 0.0 | 0.0 | 0.00 | 0.00 | 0.00 | 25 | 1006.0 |
| 20260509120023 | 73 | 253 | 0.0 | 0.0 | 0.00 | 0.00 | 0.00 | 25 | 1005.8 |
| 20260509114518 | 73 | 254 | 0.0 | 0.0 | 0.00 | 0.00 | 0.00 | 25 | 1005.8 |
| 20260509113015 | 73 | 254 | 0.0 | 0.0 | 0.00 | 0.00 | 0.00 | 26 | 1005.8 |
| 20260509111514 | 73 | 254 | 0.0 | 0.0 | 0.00 | 0.00 | 0.00 | 26 | 1005.8 |
| 20260509110013 | 74 | 254 | 0.0 | 0.0 | 0.00 | 0.00 | 0.00 | 27 | 1005.7 |
| 20260509104512 | 73 | 254 | 0.0 | 0.0 | 0.00 | 0.00 | 0.00 | 28 | 1005.7 |
| 20260509103012 | 73 | 254 | 0.0 | 0.0 | 0.00 | 0.00 | 0.00 | 30 | 1005.5 |
| 20260509101512 | 74 | 254 | 0.0 | 0.0 | 0.00 | 0.00 | 0.00 | 30 | 1005.4 |
| 20260509100007 | 75 | 254 | 0.0 | 0.0 | 0.00 | 0.00 | 0.00 | 28 | 1005.4 |
| 20260509094504 | 75 | 254 | 0.0 | 0.0 | 0.00 | 0.00 | 0.00 | 28 | 1005.5 |
| 20260509093005 | 76 | 254 | 0.0 | 0.0 | 0.00 | 0.00 | 0.00 | 27 | 1005.6 |
| 20260509091504 | 76 | 254 | 0.0 | 0.0 | 0.00 | 0.00 | 0.00 | 27 | 1005.6 |
| 20260509090003 | 75 | 254 | 0.0 | 0.0 | 0.00 | 0.00 | 0.00 | 29 | 1005.6 |
| 20260509084502 | 75 | 254 | 0.0 | 0.0 | 0.00 | 0.00 | 0.00 | 29 | 1005.6 |
| 20260509083100 | 76 | 254 | 0.0 | 0.0 | 0.00 | 0.00 | 0.00 | 29 | 1005.5 |
| 20260509081600 | 76 | 254 | 0.0 | 0.0 | 0.00 | 0.00 | 0.00 | 28 | 1005.4 |
| 20260509080100 | 76 | 254 | 0.0 | 0.0 | 0.00 | 0.00 | 0.00 | 28 | 1005.3 |
| 20260509074554 | 77 | 254 | 0.0 | 0.0 | 0.00 | 0.00 | 0.00 | 27 | 1005.3 |
| 20260509073051 | 78 | 254 | 0.0 | 0.0 | 0.00 | 0.00 | 0.00 | 26 | 1005.4 |
| 20260509071552 | 78 | 254 | 0.0 | 0.0 | 0.00 | 0.00 | 0.00 | 26 | 1005.2 |
| 20260509070050 | 80 | 254 | 0.0 | 0.0 | 0.00 | 0.00 | 0.00 | 24 | 1005.2 |
| 20260509064553 | 84 | 254 | 0.0 | 0.0 | 0.00 | 0.00 | 0.00 | 19 | 1005.0 |
| 20260509063041 | 85 | 254 | 0.0 | 0.0 | 0.00 | 0.00 | 0.00 | 18 | 1005.1 |
| 20260509061552 | 84 | 254 | 0.0 | 0.0 | 0.00 | 0.00 | 0.00 | 19 | 1005.1 |
| 20260509060042 | 83 | 254 | 0.0 | 0.0 | 0.00 | 0.00 | 0.00 | 20 | 1005.2 |
| 20260509054546 | 83 | 254 | 0.0 | 0.0 | 0.00 | 0.00 | 0.00 | 21 | 1005.1 |